Temp
62 62 62 62 63 63 63 63 63 64 64 64 64 64 64 64 63 86 95 89 89 77 77 101 104 104 105 102 103 103 88 85 86 86 88 95 93 97 99 95 96 98 98 98 96
62 62 62 62 63 63 63 63 63 63 64 64 64 64 64 64 91 98 84 78 77 77 97 101 99 102 99 99 100 95 89 87 95 94 92 94 94 94 93 92 92 95 100 100 99
61 62 62 62 63 62 62 62 63 63 64 64 64 64 64 72 95 96 78 78 78 81 103 105 104 102 96 100 96 96 88 92 91 95 96 94 92 95 93 87 91 91 96 98 98
61 62 62 62 62 62 62 62 63 64 63 63 63 64 64 94 81 100 83 80 79 96 105 103 101 96 93 91 96 88 93 93 93 93 93 91 95 90 90 89 96 97 98 99 97
60 61 62 62 62 62 62 62 62 62 62 63 63 64 88 94 94 105 87 86 102 106 102 101 98 96 90 93 93 90 90 92 93 93 94 94 91 89 88 94 97 97 96 96 98
60 61 61 61 61 61 61 61 60 61 62 63 64 63 93 88 105 107 105 105 105 105 101 103 98 100 94 92 91 92 91 91 93 93 92 89 87 90 88 93 93 93 93 95 95
60 60 60 61 61 61 61 60 60 61 62 64 66 89 97 93 106 108 107 104 105 103 99 102 103 97 96 89 95 92 86 89 89 90 88 91 83 81 88 91 89 90 92 93 94
60 60 60 61 61 61 61 61 60 62 64 66 67 94 91 105 110 106 107 104 105 105 103 103 104 100 95 96 91 87 88 81 88 88 88 88 76 82 88 88 86 87 89 90 89
60 60 60 61 61 61 61 60 62 64 67 69 90 96 89 95 99 104 106 99 101 102 102 101 101 95 93 86 83 84 77 79 80 88 87 86 78 82 86 85 83 85 86 87 86
59 59 59 60 60 60 59 59 65 69 80 98 100 91 95 93 98 100 105 102 97 97 95 95 95 89 89 85 74 77 78 79 78 84 85 83 80 81 84 84 82 83 84 84 83
59 59 59 60 60 59 70 94 92 89 96 91 92 90 93 99 102 99 101 98 97 93 86 90 85 81 83 84 84 82 79 77 81 84 80 80 79 80 81 83 81 82 81 81 81
59 59 59 59 60 59 78 94 91 94 86 94 94 94 96 99 90 95 103 91 89 84 87 85 79 83 84 84 82 81 78 78 81 83 79 80 77 79 80 79 80 81 79 80 82
57 58 59 59 59 73 97 93 101 99 87 88 94 93 94 98 89 90 96 92 86 82 84 78 81 83 82 79 77 79 75 76 74 80 82 77 75 76 78 79 79 80 81 81 79
57 57 58 57 73 100 94 99 104 99 79 80 86 91 94 96 85 96 97 92 86 80 82 80 83 80 79 76 77 71 79 76 75 73 68 78 64 72 75 75 76 77 78 80 79
56 57 57 53 94 97 95 102 103 94 62 85 87 100 96 89 90 87 96 91 82 80 81 76 77 77 75 74 77 74 78 76 74 71 71 73 68 72 75 72 74 76 77 78 80
56 57 58 81 97 98 102 100 95 74 61 78 87 85 85 88 87 89 89 92 89 82 83 80 84 80 78 78 77 78 76 76 75 73 62 71 70 69 73 73 76 78 77 77 79
56 58 67 94 95 102 102 93 73 66 82 77 80 85 85 81 82 82 80 79 76 70 71 76 77 80 79 75 80 77 71 61 59 60 60 71 65 70 73 75 76 76 77 77 79
54 55 72 97 102 100 95 81 63 76 76 83 82 83 78 80 80 79 77 75 79 77 73 70 64 74 77 73 70 71 68 60 48 54 62 71 61 66 74 75 75 75 75 77 78
53 90 95 99 98 96 86 71 73 76 81 78 80 76 76 78 78 77 76 75 77 77 68 68 67 75 75 77 74 69 66 71 60 63 60 68 70 75 73 71 73 74 75 74 73
88 93 95 98 96 90 80 68 76 80 80 80 73 77 73 76 73 75 75 75 73 76 78 71 62 73 74 75 74 71 73 60 64 46 48 62 63 62 66 69 73 73 74 75 76
86 86 92 99 95 85 75 77 79 82 82 77 75 73 75 72 73 74 72 73 74 74 77 73 66 67 71 69 69 69 66 66 63 60 51 50 60 72 68 70 69 72 74 71 69
86 80 96 98 80 86 80 79 62 80 82 79 79 76 73 73 71 71 70 72 74 76 69 72 67 61 67 74 74 72 68 65 55 53 60 57 57 72 71 73 71 71 70 68 69
83 86 95 93 74 78 79 78 79 77 78 77 74 76 76 72 65 70 71 72 72 73 69 71 63 54 62 67 69 65 69 68 65 61 53 49 55 75 75 73 73 71 72 73 72
82 77 86 87 85 77 75 75 74 79 77 78 76 77 73 70 73 69 69 71 72 73 63 67 65 61 56 63 69 63 66 69 65 52 55 58 60 67 69 69 70 70 71 72 72
85 77 75 76 79 77 76 76 74 71 79 79 74 74 72 66 69 69 72 71 72 61 69 68 59 66 68 69 69 67 66 67 64 64 55 60 61 66 68 67 68 70 70 70 69
74 74 82 78 76 75 65 74 73 76 75 73 71 75 74 68 70 67 70 71 69 71 68 69 59 64 61 68 68 64 67 67 66 65 63 63 61 71 71 71 68 68 68 67 66
81 80 75 66 75 73 75 75 74 77 77 78 76 74 71 73 76 77 76 75 73 69 66 65 63 60 55 66 63 56 65 66 67 67 64 56 63 67 66 65 66 67 67 65 66
MSLP
1017.60 1017.48 1017.29 1017.13 1016.99 1016.86 1016.67 1016.47 1016.22 1015.94 1015.68 1015.27 1014.82 1014.41 1014.02 1013.95 1013.71 1013.36 1011.21 1011.55 1011.25 1011.33 1011.26 1009.76 1008.49 1007.79 1007.28 1006.05 1006.01 1005.51 1004.30 1002.41 1002.34 1003.02 1003.58 1004.90 1004.64 1005.45 1005.95 1005.49 1006.31 1006.76 1007.32 1008.51 1010.37
1017.60 1017.45 1017.28 1017.14 1016.99 1016.82 1016.63 1016.45 1016.23 1015.89 1015.50 1015.07 1014.61 1014.14 1013.91 1013.86 1012.62 1011.08 1011.64 1011.37 1011.26 1011.25 1010.31 1008.33 1007.18 1006.94 1006.02 1005.47 1005.36 1004.96 1003.42 1002.64 1003.38 1003.75 1003.98 1004.92 1005.17 1005.65 1006.08 1006.30 1006.35 1006.59 1007.24 1008.44 1009.43
1017.57 1017.42 1017.26 1017.14 1016.98 1016.79 1016.61 1016.42 1016.14 1015.74 1015.26 1014.86 1014.38 1013.83 1013.58 1013.45 1011.16 1010.62 1011.24 1011.11 1010.99 1010.90 1009.25 1008.00 1006.89 1006.18 1005.16 1004.99 1004.83 1004.28 1003.65 1004.24 1005.08 1005.26 1004.92 1005.26 1005.99 1006.60 1006.36 1006.93 1007.55 1007.60 1007.33 1008.02 1008.69
1017.54 1017.36 1017.26 1017.14 1016.99 1016.82 1016.63 1016.33 1015.96 1015.56 1015.14 1014.71 1014.21 1013.59 1013.28 1012.32 1010.04 1010.35 1010.73 1010.64 1010.62 1010.05 1008.39 1007.28 1006.53 1005.57 1004.99 1004.81 1005.12 1004.67 1005.10 1005.20 1005.85 1006.36 1006.04 1005.99 1006.49 1007.60 1008.35 1008.51 1008.37 1008.24 1008.52 1008.24 1008.47
1017.46 1017.33 1017.26 1017.13 1016.99 1016.81 1016.57 1016.23 1015.85 1015.48 1015.07 1014.56 1014.03 1013.57 1012.61 1010.49 1009.67 1010.15 1010.44 1010.21 1009.63 1008.53 1007.42 1006.46 1005.85 1005.44 1005.04 1005.22 1005.42 1004.99 1005.93 1006.25 1006.66 1006.67 1006.59 1007.11 1007.21 1008.04 1009.13 1009.15 1009.00 1008.92 1009.14 1008.90 1008.78
1017.48 1017.31 1017.20 1017.10 1016.92 1016.68 1016.39 1016.08 1015.71 1015.31 1014.89 1014.39 1013.83 1013.43 1012.02 1009.47 1009.82 1009.67 1009.61 1009.27 1008.68 1007.95 1007.56 1006.77 1006.20 1005.96 1005.63 1005.54 1005.71 1005.90 1006.21 1006.42 1006.84 1006.94 1007.39 1007.40 1008.29 1008.60 1009.70 1009.71 1009.57 1009.75 1009.81 1009.84 1010.16
1017.55 1017.38 1017.20 1017.03 1016.83 1016.57 1016.22 1015.84 1015.42 1014.97 1014.53 1014.05 1013.70 1012.73 1010.16 1009.39 1009.65 1009.29 1009.01 1008.78 1008.77 1008.35 1007.53 1007.51 1007.02 1006.69 1006.27 1006.40 1006.62 1006.50 1006.47 1006.65 1006.98 1007.40 1007.60 1007.93 1008.51 1009.51 1010.17 1010.07 1010.09 1010.25 1010.37 1010.65 1010.69
1017.57 1017.37 1017.16 1016.93 1016.66 1016.36 1015.98 1015.59 1015.15 1014.64 1014.18 1013.65 1013.41 1012.14 1009.81 1009.72 1009.32 1008.97 1008.60 1008.66 1008.71 1008.55 1008.06 1008.00 1007.63 1006.87 1006.63 1006.82 1006.88 1006.37 1006.12 1005.77 1006.85 1007.62 1008.14 1008.66 1008.18 1010.13 1010.56 1010.50 1010.63 1010.99 1011.09 1011.43 1012.21
1017.49 1017.29 1017.04 1016.75 1016.47 1016.12 1015.73 1015.33 1014.74 1014.33 1014.00 1013.40 1012.81 1011.06 1009.59 1010.31 1009.42 1009.36 1009.02 1008.55 1008.61 1008.56 1008.52 1008.52 1007.72 1006.91 1007.26 1006.86 1006.36 1006.44 1005.60 1005.64 1006.72 1007.64 1007.81 1008.43 1008.40 1010.53 1011.07 1011.21 1011.39 1011.61 1012.00 1012.48 1013.13
1017.44 1017.17 1016.89 1016.59 1016.25 1015.87 1015.40 1015.12 1014.43 1014.10 1013.34 1012.12 1011.15 1010.29 1009.76 1009.20 1009.55 1009.62 1009.28 1009.04 1008.52 1008.43 1008.26 1007.78 1007.03 1006.58 1006.35 1006.13 1005.21 1004.94 1005.52 1006.12 1006.57 1007.35 1008.13 1007.88 1008.63 1010.62 1011.38 1011.46 1011.86 1012.25 1012.77 1013.29 1013.99
1017.35 1017.04 1016.70 1016.37 1015.94 1015.59 1014.81 1013.86 1013.62 1012.64 1011.27 1010.08 1009.46 1009.39 1009.34 1009.56 1009.80 1009.12 1009.27 1008.81 1008.76 1008.43 1007.47 1007.60 1006.72 1005.99 1006.41 1007.04 1007.22 1006.87 1006.78 1006.70 1006.82 1007.88 1008.87 1008.33 1009.03 1010.31 1011.69 1011.72 1012.07 1012.65 1013.35 1013.96 1014.62
1017.23 1016.86 1016.46 1016.09 1015.58 1015.42 1014.97 1011.80 1011.81 1011.42 1010.28 1010.28 1009.88 1009.51 1009.63 1009.51 1009.12 1009.05 1008.81 1008.57 1008.44 1007.76 1007.79 1007.78 1007.14 1008.09 1008.59 1008.62 1008.26 1007.83 1007.50 1007.16 1007.33 1008.37 1009.39 1008.61 1009.30 1010.39 1011.69 1012.24 1012.76 1013.05 1013.82 1014.28 1014.59
1017.07 1016.64 1016.23 1015.84 1015.34 1014.80 1012.71 1012.37 1011.73 1011.39 1009.94 1009.92 1009.47 1009.02 1009.34 1009.33 1008.80 1009.13 1008.91 1008.65 1008.12 1007.99 1007.87 1008.00 1008.54 1009.51 1009.32 1009.10 1008.92 1008.22 1008.41 1008.11 1008.39 1008.50 1008.90 1009.18 1008.84 1009.53 1011.63 1012.51 1013.23 1013.64 1014.21 1014.77 1015.29
1016.95 1016.47 1016.06 1015.75 1015.40 1012.52 1012.01 1012.00 1011.61 1011.73 1009.66 1009.33 1009.35 1008.86 1009.22 1008.87 1009.33 1009.84 1009.67 1009.23 1008.73 1008.58 1008.83 1009.17 1009.93 1009.91 1009.70 1009.81 1010.47 1009.41 1009.59 1009.84 1009.66 1009.34 1008.40 1008.50 1008.15 1009.13 1010.70 1012.12 1013.12 1013.71 1014.22 1014.79 1015.43
1016.80 1016.28 1015.88 1015.87 1013.47 1011.83 1012.29 1011.87 1011.64 1011.82 1008.72 1008.51 1008.58 1008.92 1008.72 1008.80 1009.06 1010.08 1010.26 1009.57 1009.04 1009.45 1009.84 1009.60 1010.19 1010.32 1010.28 1011.10 1011.59 1010.57 1011.01 1010.57 1010.32 1009.88 1009.38 1008.50 1008.52 1008.93 1010.47 1011.33 1012.35 1013.65 1014.56 1015.13 1015.56
1016.62 1016.11 1015.83 1014.57 1013.09 1012.27 1012.06 1012.11 1012.06 1010.90 1008.10 1008.36 1008.45 1008.75 1008.83 1008.92 1009.34 1009.87 1010.03 1010.33 1010.42 1010.06 1009.97 1010.19 1011.29 1011.46 1011.58 1011.99 1012.21 1012.01 1011.30 1010.58 1010.24 1009.73 1008.75 1007.90 1008.10 1008.54 1009.18 1010.78 1011.56 1012.93 1014.29 1015.23 1015.88
1016.51 1015.96 1015.81 1013.63 1011.99 1012.14 1012.07 1011.78 1010.83 1008.95 1008.40 1008.23 1008.29 1008.39 1008.35 1008.79 1009.42 1009.90 1009.98 1010.10 1010.20 1010.03 1009.69 1010.63 1010.92 1011.89 1012.59 1011.87 1011.57 1011.72 1011.30 1010.08 1009.45 1008.70 1008.17 1008.71 1009.55 1009.36 1010.96 1012.05 1012.89 1013.27 1014.22 1015.14 1015.69
1016.51 1016.11 1014.66 1013.27 1012.62 1012.51 1011.99 1011.23 1009.71 1008.12 1008.19 1008.49 1008.54 1008.50 1008.45 1009.14 1009.56 1010.09 1010.33 1010.20 1010.79 1011.02 1010.55 1010.10 1010.75 1012.04 1013.00 1013.01 1012.76 1012.33 1012.65 1011.69 1011.01 1009.83 1009.10 1009.14 1008.94 1010.20 1011.93 1013.25 1014.19 1014.76 1015.32 1015.69 1015.61
1016.35 1014.78 1013.16 1012.93 1013.07 1012.76 1011.67 1010.03 1008.53 1008.54 1008.68 1008.94 1008.95 1008.67 1008.77 1009.61 1010.16 1010.22 1010.33 1010.76 1011.37 1011.91 1011.75 1011.11 1011.40 1013.07 1013.36 1013.62 1013.84 1012.83 1012.64 1013.55 1013.21 1012.31 1010.81 1009.12 1009.19 1010.18 1012.69 1013.74 1014.45 1014.54 1015.04 1015.28 1016.08
1015.34 1013.36 1012.13 1012.95 1013.16 1012.58 1011.22 1009.89 1009.55 1010.05 1010.12 1009.68 1008.91 1009.08 1008.65 1009.06 1010.28 1010.14 1010.28 1011.97 1012.51 1013.19 1013.13 1012.62 1012.74 1012.88 1013.65 1014.14 1014.26 1014.00 1014.16 1013.79 1013.31 1013.15 1011.77 1010.07 1010.22 1010.82 1012.48 1012.96 1013.63 1014.18 1014.48 1014.84 1015.29
1015.42 1012.62 1012.71 1012.75 1012.82 1011.71 1010.09 1009.37 1010.11 1010.72 1010.68 1010.29 1009.63 1009.90 1009.96 1010.24 1010.90 1010.76 1011.11 1012.81 1013.67 1013.70 1013.86 1013.78 1014.04 1013.39 1014.11 1013.42 1012.99 1013.71 1013.55 1014.12 1014.70 1014.36 1013.23 1012.04 1011.09 1012.07 1013.11 1013.91 1014.48 1014.76 1014.88 1015.93 1016.45
1014.67 1012.17 1012.35 1012.46 1011.86 1010.52 1009.72 1010.29 1011.54 1010.90 1011.12 1011.05 1011.04 1011.04 1011.18 1011.34 1011.55 1011.63 1012.14 1013.09 1014.64 1014.53 1014.21 1014.78 1014.61 1013.64 1012.76 1013.43 1014.16 1014.01 1013.87 1014.23 1014.73 1014.64 1013.91 1013.53 1012.76 1013.29 1013.87 1014.13 1014.50 1014.72 1015.66 1016.97 1016.77
1014.65 1012.52 1012.15 1012.26 1010.78 1010.04 1010.76 1011.00 1011.23 1011.41 1011.35 1011.46 1011.62 1012.03 1012.32 1012.20 1012.56 1012.68 1013.17 1014.85 1015.40 1015.24 1015.31 1015.43 1015.03 1014.28 1013.08 1013.80 1014.39 1014.18 1013.96 1014.47 1015.01 1015.53 1015.08 1014.33 1013.29 1012.71 1013.08 1013.70 1014.26 1014.69 1015.11 1015.33 1015.44
1015.55 1012.45 1011.57 1011.78 1011.69 1011.41 1010.87 1010.94 1011.36 1012.06 1012.09 1012.20 1012.20 1012.63 1012.72 1012.66 1012.98 1012.97 1013.52 1015.06 1015.76 1015.95 1017.03 1016.80 1015.77 1014.85 1013.78 1012.87 1013.35 1013.55 1013.71 1014.09 1014.49 1014.92 1014.91 1014.15 1013.26 1013.27 1013.46 1014.01 1014.74 1015.34 1015.49 1015.36 1015.24
1015.57 1013.97 1014.01 1011.51 1011.54 1011.82 1011.85 1011.32 1011.22 1011.76 1012.23 1012.40 1012.45 1012.64 1012.69 1012.75 1012.81 1013.09 1013.55 1014.61 1015.86 1017.10 1016.95 1016.73 1015.85 1014.85 1014.05 1013.76 1013.64 1013.46 1013.47 1013.57 1013.79 1014.05 1014.20 1014.02 1013.75 1013.75 1014.02 1014.68 1015.25 1015.51 1015.47 1015.28 1015.08
1016.93 1015.78 1014.39 1013.47 1013.31 1012.73 1012.42 1011.75 1011.48 1011.39 1012.12 1012.27 1012.65 1012.48 1012.98 1013.16 1013.19 1013.25 1013.67 1014.19 1014.77 1015.95 1016.46 1016.51 1015.93 1015.22 1014.41 1013.84 1013.47 1013.31 1013.24 1013.47 1013.74 1014.01 1014.29 1014.33 1014.14 1014.31 1014.82 1015.25 1015.63 1015.63 1015.46 1015.32 1015.69
1017.90 1017.24 1016.40 1014.15 1013.19 1012.80 1011.88 1011.83 1011.91 1012.03 1012.30 1012.63 1012.64 1012.81 1013.36 1013.46 1014.03 1014.09 1014.60 1014.88 1015.10 1015.56 1015.98 1016.23 1015.80 1015.19 1014.30 1013.53 1013.85 1013.45 1012.80 1013.10 1013.64 1014.15 1014.77 1014.93 1014.90 1015.45 1015.45 1015.86 1015.96 1015.71 1015.66 1015.93 1015.73
Wind_Speed
6 6 7 7 7 8 9 9 10 10 11 12 13 13 13 11 9 9 1 8 6 3 6 14 10 13 13 14 11 11 13 12 4 6 14 7 5 3 4 3 8 9 14 13 16
5 6 6 7 8 8 9 9 10 11 12 12 13 13 12 8 12 10 3 6 6 3 11 13 13 10 15 9 6 12 14 9 12 6 8 6 7 6 5 3 4 1 14 9 12
5 6 6 7 8 9 10 10 10 11 12 13 14 14 12 9 8 11 2 2 5 7 16 10 7 13 9 10 4 13 8 10 1 10 8 8 3 4 9 17 10 11 10 7 10
5 6 6 7 8 9 10 11 11 12 13 14 14 15 11 11 1 9 6 5 6 11 12 9 12 11 7 4 4 1 8 3 7 2 2 2 11 11 11 8 7 6 9 4 3
5 6 6 8 9 9 10 11 11 12 13 14 14 12 10 8 11 9 6 7 11 11 8 6 8 4 6 1 4 4 6 1 3 3 2 6 5 10 10 9 7 5 2 5 8
5 6 7 8 9 10 11 11 12 12 13 13 14 15 13 4 3 1 2 7 5 9 4 8 3 10 1 2 6 5 2 5 4 10 3 6 4 6 9 5 4 4 5 8 9
5 5 7 8 9 10 11 11 11 12 13 13 11 8 14 9 1 3 5 3 2 5 5 3 7 8 1 2 2 2 10 7 5 6 5 5 10 6 4 3 4 5 5 7 8
6 6 7 8 9 10 11 12 12 14 13 13 9 11 3 2 3 2 3 5 0 2 3 2 7 11 8 5 6 9 8 12 13 7 5 10 7 7 3 4 5 6 7 8 13
7 7 7 8 9 10 12 12 15 12 10 12 10 13 9 6 6 2 4 4 2 4 2 2 10 5 7 11 12 10 14 7 11 3 2 11 6 7 1 4 4 5 7 8 11
8 8 8 9 10 11 12 9 5 9 9 10 9 10 7 5 3 2 2 5 4 8 10 11 10 11 13 14 8 6 10 4 7 10 7 8 2 5 1 1 3 5 6 8 11
10 9 9 9 11 11 11 6 8 8 12 8 6 4 8 6 6 3 1 4 7 9 13 6 13 3 14 12 13 13 7 10 2 7 10 9 3 5 1 3 4 4 6 7 9
12 10 10 10 12 8 8 5 8 8 4 4 1 1 1 1 5 5 8 6 9 14 3 10 1 9 6 8 10 11 12 12 1 4 7 12 10 7 5 1 1 2 5 5 7
12 11 11 11 12 5 5 6 7 4 8 8 4 7 10 11 2 6 3 5 3 4 7 13 11 1 5 2 9 10 10 12 9 8 10 14 15 15 8 6 4 3 3 5 6
13 12 11 11 3 3 4 5 4 4 7 12 11 5 7 5 5 4 4 6 1 5 4 6 4 2 5 1 10 14 10 8 12 12 13 3 11 11 15 11 7 4 1 3 4
14 11 11 4 10 5 6 7 6 4 7 16 12 6 7 7 13 6 0 6 5 6 6 8 2 4 5 8 10 13 11 11 11 12 14 16 11 10 10 12 10 6 1 4 6
14 11 8 6 8 4 6 3 6 9 3 9 8 11 13 8 6 6 5 1 5 5 6 8 4 3 8 6 4 9 12 14 13 11 12 15 4 5 9 9 4 6 5 3 9
15 10 5 8 5 7 5 7 8 12 6 9 12 10 14 8 7 5 6 9 6 6 10 10 10 7 4 13 9 7 9 8 7 9 7 7 5 6 9 6 8 8 4 5 8
16 10 6 5 6 6 6 9 9 4 5 4 2 9 8 4 7 5 7 9 7 9 11 11 8 4 2 5 9 8 8 6 7 8 13 12 9 9 9 6 2 2 4 9 14
14 6 7 2 5 6 9 10 4 0 5 6 9 10 9 6 7 5 7 9 8 5 8 8 3 7 4 3 5 5 4 8 8 13 11 7 1 15 8 3 6 9 7 12 9
7 6 5 1 3 7 8 10 2 3 3 6 10 3 8 10 5 7 6 6 2 4 4 3 11 5 8 5 4 7 6 6 5 5 10 11 13 9 2 5 11 10 14 15 18
7 6 7 1 5 8 9 2 3 4 2 5 3 2 6 5 4 10 2 7 2 2 3 4 3 4 3 11 4 8 10 6 3 7 7 9 7 10 7 9 12 16 16 17 15
5 7 5 3 8 3 6 3 4 6 4 1 3 5 4 2 7 6 5 4 1 3 4 6 6 10 5 8 5 7 9 4 3 7 8 11 9 5 6 10 11 12 11 12 19
6 7 6 4 7 6 5 3 3 4 2 2 2 3 0 4 4 4 2 7 2 4 4 3 4 5 8 9 6 7 8 7 7 6 10 10 9 1 15 16 16 19 21 19 20
6 4 5 6 4 9 3 7 8 1 2 2 1 3 4 5 5 3 5 5 3 2 3 2 8 10 10 14 7 7 9 10 10 7 12 14 19 19 18 16 17 19 20 21 20
3 3 5 4 4 5 4 4 9 7 8 6 5 8 5 4 6 7 5 9 7 6 5 5 11 12 12 12 12 13 13 13 14 14 14 17 19 18 15 17 16 20 20 20 22
6 5 1 8 6 8 5 8 10 6 3 8 8 5 5 6 5 7 3 7 7 11 8 6 8 8 13 14 13 15 15 14 14 14 15 16 18 14 16 15 18 20 21 21 21
4 3 6 1 7 9 9 9 6 8 6 9 5 5 7 3 2 5 6 6 5 6 7 8 7 8 12 6 8 13 10 9 10 7 10 14 16 15 16 16 18 21 21 20 24
Wind_Direction
331 329 324 324 321 318 318 319 318 315 307 303 304 302 299 310 301 207 65 359 316 321 303 258 231 232 229 247 245 248 269 251 162 285 102 132 186 31 20 46 37 27 41 96 142
328 324 324 322 319 317 318 318 315 310 305 307 304 300 300 313 255 90 13 314 296 271 244 224 209 204 227 240 227 243 247 43 24 33 120 127 337 95 255 106 162 286 99 98 125
323 321 322 320 319 319 318 316 311 309 310 309 304 300 300 290 237 79 138 337 278 236 263 270 280 239 230 250 178 224 274 75 68 21 357 103 156 343 345 47 33 351 60 111 149
321 323 320 318 317 315 313 312 313 312 308 305 303 301 311 248 334 71 340 305 245 260 258 210 238 234 233 203 212 261 36 54 62 86 275 192 73 64 39 21 23 28 1 56 166
324 319 316 313 310 309 309 311 309 305 303 303 302 305 295 219 83 120 250 224 256 265 291 257 251 218 236 130 221 139 141 84 160 119 48 68 78 94 49 21 33 41 167 6 349
325 315 309 304 303 305 306 305 301 298 300 300 300 309 244 164 85 161 291 234 286 278 289 284 294 329 67 236 279 84 265 173 204 126 191 141 83 332 42 11 59 7 12 7 355
328 312 301 298 299 299 299 300 297 297 298 294 297 293 263 81 287 229 235 354 309 301 259 281 314 247 198 158 275 189 215 177 193 175 176 202 168 85 36 22 27 352 355 348 9
334 317 307 302 297 297 299 298 293 292 291 283 297 278 65 145 299 246 273 128 15 206 338 277 243 273 281 56 239 237 270 201 133 180 121 249 143 93 27 16 23 11 13 14 38
339 324 312 300 298 298 296 292 283 278 263 277 263 228 124 160 215 96 344 341 100 158 96 232 241 238 202 224 205 200 254 197 143 237 158 210 133 98 40 54 38 29 32 35 34
340 325 311 304 299 294 288 270 301 283 227 246 265 259 176 122 99 291 82 280 224 167 189 222 216 213 211 218 268 233 218 188 289 142 231 246 105 94 42 95 79 58 53 47 48
342 324 312 304 295 295 302 199 201 192 215 325 111 30 112 125 203 174 280 218 223 239 249 233 261 303 17 350 334 326 313 293 262 83 290 278 329 136 179 219 111 65 55 65 64
341 327 315 307 294 303 269 290 33 348 217 198 162 11 114 260 168 121 222 238 214 234 252 233 357 33 327 308 296 294 282 272 317 184 286 272 238 159 220 158 99 81 78 51 57
336 325 317 311 313 261 68 28 322 306 253 169 184 184 176 219 124 91 292 328 347 207 236 5 81 143 279 254 316 262 294 323 313 313 230 254 258 178 188 186 149 123 101 85 41
334 323 315 320 285 123 99 347 325 339 252 145 189 157 176 188 133 344 343 317 266 52 47 52 52 300 257 141 339 303 14 307 290 280 277 136 286 167 174 201 200 180 147 17 20
332 319 307 284 319 240 18 330 347 244 251 147 143 99 173 211 121 144 268 276 12 103 257 99 158 308 276 19 333 319 334 304 297 281 280 266 231 83 149 205 191 202 275 305 328
335 315 319 211 243 39 302 324 248 233 217 143 151 192 185 186 151 129 200 267 354 282 307 92 48 332 10 300 298 302 275 260 248 247 249 232 285 238 174 207 239 156 218 318 316
339 321 271 306 351 349 307 225 221 260 116 140 185 181 198 171 149 231 201 208 267 257 198 183 182 127 312 308 175 285 317 295 231 203 254 98 279 308 74 51 355 355 335 305 308
333 318 201 289 309 319 246 226 258 12 174 74 224 197 210 169 209 203 247 251 174 281 282 287 179 181 71 355 326 303 319 292 307 325 320 320 237 119 84 89 40 350 293 299 294
318 204 217 131 316 288 256 230 293 20 61 201 193 214 188 183 276 205 226 325 26 352 299 327 105 117 59 354 307 22 271 15 300 278 260 279 57 130 91 158 229 241 284 295 303
279 230 144 308 308 261 246 267 3 38 288 259 224 236 265 168 225 200 280 89 124 304 306 15 287 140 97 249 165 301 16 239 198 287 312 335 300 76 213 296 339 316 303 318 331
255 237 99 223 243 241 244 100 137 117 276 295 295 270 282 319 279 298 319 104 275 151 302 334 244 157 225 207 320 179 203 222 320 301 307 307 341 44 21 331 314 308 321 344 326
289 252 93 194 252 242 281 125 1 155 188 178 306 317 292 27 280 277 283 83 32 295 266 65 304 275 248 58 293 287 304 302 278 278 285 309 308 56 335 281 293 296 337 319 275
295 301 132 242 263 214 98 154 248 192 211 229 164 310 349 271 277 259 230 87 193 260 359 147 238 284 243 181 204 251 242 223 259 278 273 293 279 134 332 337 331 335 328 325 314
280 262 163 215 281 298 173 209 179 209 151 258 78 243 228 234 212 271 217 145 150 53 10 338 268 260 270 335 337 260 234 243 254 265 271 276 304 307 329 331 338 329 325 322 323
249 56 4 298 160 278 296 318 227 176 233 222 214 237 237 255 237 229 237 136 189 143 215 259 264 267 263 284 286 278 275 279 275 275 277 289 301 314 330 338 327 327 320 319 322
315 334 191 282 288 263 169 234 253 215 212 217 250 220 237 253 284 326 288 238 252 153 242 206 269 273 281 266 261 278 278 276 271 273 275 291 299 327 334 323 326 321 325 333 326
21 199 275 226 222 254 252 224 239 268 169 278 256 224 224 262 354 348 330 324 310 266 211 233 271 264 283 273 282 278 292 249 292 289 293 293 316 321 320 323 324 320 328 330 334